Tracking 35051 objects as of 17-Aug-2026
HD Live streaming from Space Station
objects crossing your sky now

SL-4 R/B


SL-4 R/B is no longer on orbit


NORAD ID: 19042
Int'l Code: 1988-030B
Launch date: April 11, 1988
Source: Commonwealth of Independent States (former USSR) (CIS)
Launch site: PLESETSK MISSILE AND SPACE COMPLEX (PKMTR)
Decay date: 1988-04-16

Note: This is a ROCKET BODY
Your satellite tracking list
Your tracking list is empty




NASA's NSSDC Master Catalog

Two Line Element Set (TLE):
1 19042U 88030  B 88107.08158359  .25582254 +93586-5 +20037-3 0  9992
2 19042 072.8641 001.5343 0014064 103.8537 256.8794 16.51915072000743
Source of the keplerian elements: AFSPC